This is the latest recevied weather packets stored in our database for station/object EA2AFZ-W. If no packets are shown the sender has not sent any weather packets the latest 10 day(s).
| Time | Temp. | Humidity | Pressure | Rain* | Wind** | Luminosity | Snow |
|---|---|---|---|---|---|---|---|
| 1788354923 | 26.11° C | 55% | 1023 hPa | 0 mm | - | - | - |
| 1788353120 | 25.56° C | 57% | 1023 hPa | 0 mm | - | - | - |
| 1788351318 | 25.56° C | 58% | 1023 hPa | 0 mm | - | - | - |
| 1788349515 | 25° C | 59% | 1023 hPa | 0 mm | - | - | - |
| 1788347714 | 24.44° C | 60% | 1023 hPa | 0 mm | - | - | - |
| 1788345911 | 23.89° C | 61% | 1024 hPa | 0 mm | - | - | - |
| 1788344109 | 23.33° C | 61% | 1023 hPa | 0 mm | - | - | - |
| 1788342366 | 22.78° C | 63% | 1024 hPa | 0 mm | - | - | - |
| 1788340564 | 20.56° C | 68% | 1023 hPa | 0 mm | - | - | - |
| 1788338761 | 20.56° C | 69% | 1024 hPa | 0 mm | - | - | - |
| 1788336981 | 18.33° C | 75% | 1023 hPa | 0 mm | - | - | - |
| 1788335155 | 17.78° C | 82% | 1024 hPa | 0 mm | - | - | - |
| 1788333354 | 17.78° C | 78% | 1023 hPa | 0 mm | - | - | - |
| 1788331551 | 16.67° C | 77% | 1024 hPa | 0 mm | - | - | - |
| 1788329749 | 14.44° C | 77% | 1023 hPa | 0 mm | - | - | - |
| 1788327947 | 14.44° C | 78% | 1023 hPa | 0 mm | - | - | - |
| 1788326144 | 14.44° C | 77% | 1023 hPa | 0 mm | - | - | - |
| 1788324341 | 15° C | 76% | 1023 hPa | 0 mm | - | - | - |
| 1788322540 | 15.56° C | 76% | 1023 hPa | 0 mm | - | - | - |
| 1788320738 | 15.56° C | 76% | 1023 hPa | 0 mm | - | - | - |
| 1788318934 | 15.56° C | 76% | 1023 hPa | 0 mm | - | - | - |
| 1788317133 | 16.11° C | 78% | 1023 hPa | 0 mm | - | - | - |
| 1788315331 | 16.67° C | 84% | 1023 hPa | 0 mm | - | - | - |
| 1788313528 | 17.22° C | 77% | 1023 hPa | 0 mm | - | - | - |
| 1788311726 | 17.78° C | 81% | 1023 hPa | 0 mm | - | - | - |
* Rain latest hour (hover to see other rain measurements)
** Current wind speed in m/s (hover to see current wind gust speed)